Wetbulb
65.68 63.83 63.56 60.95 54.04 55.40 52.74 54.97 58.58 58.06 56.78 59.73 61.10 60.46 61.22 64.71 64.74 62.41 74.07 74.22 75.62 75.47 77.04 77.65 78.10 78.13 77.82 77.60 77.32 76.91 76.60 76.50 76.66 76.61 76.81 76.91 77.28 77.39 77.41 77.04 76.97 76.38 75.15 74.55 73.84 73.48 73.56 73.77 74.12
62.51 62.19 61.64 57.53 51.93 50.69 53.13 57.55 56.69 58.93 59.28 60.26 60.04 59.96 60.69 63.03 69.88 70.95 70.07 74.63 76.06 76.12 76.67 77.09 78.07 78.03 78.05 77.47 77.34 76.81 76.55 76.60 76.55 76.58 76.83 76.93 77.10 77.16 77.08 77.01 76.74 75.83 74.66 73.70 73.30 73.32 73.29 73.62 73.69
62.06 62.48 56.46 54.08 52.17 50.48 53.21 58.02 58.54 59.27 60.13 59.89 59.39 62.60 66.15 65.41 70.65 71.47 72.56 74.88 75.91 75.55 76.22 77.78 78.17 78.00 78.05 77.70 77.44 76.96 76.65 76.65 76.63 76.76 76.76 76.93 77.01 76.90 76.85 76.78 76.54 75.45 74.15 73.20 72.96 73.32 73.60 73.57 73.56
59.93 58.52 56.79 50.79 50.84 54.42 56.15 59.02 59.38 58.62 59.77 60.74 60.92 62.35 67.65 71.59 71.58 72.20 73.11 74.34 75.21 74.60 75.26 77.24 77.83 77.91 78.02 77.90 77.42 77.14 76.81 76.73 76.88 76.91 76.73 76.88 76.93 76.64 76.60 76.71 76.41 75.59 74.29 73.46 73.16 73.33 73.47 73.62 73.84
59.46 56.38 51.38 50.74 52.04 55.27 57.79 59.30 59.30 58.05 58.81 59.60 60.56 62.03 64.32 70.36 72.97 73.03 73.46 74.04 73.84 74.56 76.71 76.92 77.53 77.93 78.02 77.97 77.74 77.09 76.88 76.81 76.88 76.83 76.91 76.81 76.65 76.54 76.55 76.53 75.93 75.24 74.45 73.43 72.54 72.14 72.10 71.97 71.78
53.76 55.15 48.88 49.06 52.55 56.26 58.21 59.14 58.50 58.25 59.22 59.14 58.86 60.53 60.89 69.67 71.49 72.30 73.30 73.92 74.30 75.35 77.29 76.48 77.19 77.58 77.56 77.71 77.56 77.18 76.80 76.70 76.78 76.86 76.88 76.75 76.42 76.39 76.40 76.28 75.73 75.12 74.25 73.36 72.44 71.74 71.55 71.38 70.91
51.42 51.58 49.59 50.99 52.11 54.42 57.15 59.50 56.97 57.41 58.07 58.42 60.03 58.11 61.27 63.78 69.88 72.87 73.67 74.02 74.45 75.82 77.39 76.48 75.45 76.87 77.42 77.24 77.08 76.91 76.69 76.62 76.64 76.54 76.44 76.52 76.34 76.26 76.07 75.92 75.51 75.01 74.20 73.44 72.40 71.73 71.38 71.00 70.54
52.99 51.50 49.00 51.06 51.10 52.16 57.94 58.83 59.07 57.66 56.91 60.77 60.72 56.57 57.53 61.87 65.03 70.70 72.45 72.87 73.61 74.22 76.87 76.12 75.48 75.12 76.03 76.49 76.98 76.93 76.60 76.51 76.51 76.36 76.34 76.26 76.06 75.91 75.62 75.20 75.00 74.66 74.08 73.20 72.59 71.85 71.60 71.23 70.64
54.37 48.78 47.37 48.82 50.33 52.51 56.43 56.99 59.12 60.18 58.17 58.61 59.44 59.52 60.91 62.24 62.50 63.35 68.72 71.05 71.63 73.08 74.79 75.84 74.10 74.73 74.74 75.14 76.36 76.38 76.57 76.66 76.38 76.32 76.26 75.16 74.55 74.52 74.36 74.21 74.76 74.68 74.03 73.21 72.63 71.96 71.71 71.37 71.20
50.40 47.30 48.05 52.43 53.32 52.53 54.49 54.76 56.34 56.30 57.03 56.82 57.69 59.61 60.48 60.79 60.73 61.06 62.35 67.21 70.08 71.24 72.50 75.52 74.25 74.10 74.00 73.44 75.91 75.98 76.06 76.03 75.93 75.67 75.83 74.97 74.57 74.09 73.10 73.82 74.93 74.66 74.01 73.49 72.86 72.29 71.87 70.99 66.41
50.25 47.01 49.91 51.08 52.10 52.47 52.09 52.60 54.86 53.25 53.48 56.10 55.27 57.16 59.11 59.43 61.85 60.36 60.67 61.65 63.24 71.35 72.26 74.57 76.01 75.21 74.10 73.36 75.24 74.54 74.71 75.39 75.65 75.82 75.83 75.24 74.42 73.68 73.01 72.69 72.25 72.45 73.34 70.75 71.07 70.34 68.76 66.89 66.41
48.05 50.76 50.71 50.82 52.62 52.71 51.60 53.13 51.77 52.75 53.31 55.72 56.26 57.10 56.95 57.30 58.32 58.28 59.34 61.30 62.64 64.04 70.64 74.15 76.42 76.26 75.36 74.67 74.66 74.40 72.78 73.44 73.55 74.51 75.55 74.96 73.83 72.93 72.47 71.50 71.08 71.08 70.62 68.67 68.69 67.25 67.48 66.76 68.17
48.76 50.20 51.69 52.32 51.96 52.27 53.10 50.96 51.31 52.00 54.61 55.68 55.68 55.63 55.36 56.49 57.84 59.53 60.23 61.69 63.89 65.37 68.32 74.01 75.51 76.45 76.61 77.00 75.95 74.67 73.12 72.87 72.76 73.09 73.43 73.49 72.93 72.91 72.63 70.61 71.60 70.92 69.47 69.07 67.96 68.69 68.16 68.78 69.88
51.05 50.64 51.01 51.78 51.37 51.92 50.34 50.04 50.56 51.55 54.04 53.96 54.37 54.54 55.15 55.74 57.06 59.07 61.37 64.33 66.77 68.28 69.50 71.88 76.54 77.34 77.53 76.12 77.55 79.63 75.81 73.45 73.11 72.34 72.20 73.18 73.32 71.74 71.97 72.75 70.35 71.19 68.85 69.45 68.41 69.37 70.26 70.53 70.22
51.37 48.60 49.66 49.93 50.68 49.61 50.77 47.73 48.27 52.17 53.20 53.00 53.57 54.51 55.15 56.22 57.10 58.65 61.91 68.05 67.22 67.00 69.32 70.98 71.96 78.18 77.18 77.41 77.11 77.57 77.97 75.32 74.59 72.49 72.80 72.60 72.78 73.22 72.70 71.11 71.68 70.06 70.08 69.86 69.96 70.81 72.06 70.88 71.57
47.98 48.06 44.23 48.96 49.88 50.03 49.49 43.84 49.84 53.26 52.66 52.17 52.46 53.15 54.43 56.37 56.75 59.85 61.66 68.87 66.51 67.74 67.74 68.83 69.14 74.44 77.59 77.17 77.56 76.45 76.36 75.61 74.75 73.29 73.40 73.40 72.39 74.17 74.05 72.09 70.72 72.11 73.02 72.38 71.78 70.26 69.64 69.14 68.94
47.40 42.56 44.36 46.41 50.83 49.91 48.87 45.76 50.19 52.90 52.43 52.11 53.11 53.81 54.57 55.33 57.90 60.37 62.52 65.54 67.89 68.45 66.82 68.50 69.67 68.93 72.35 77.00 77.20 77.36 76.51 75.95 75.04 74.73 72.96 73.13 72.85 73.18 74.30 71.37 71.39 72.61 71.96 72.13 70.23 70.30 69.17 67.93 68.86
43.57 43.78 45.31 45.14 49.24 49.49 47.59 47.12 49.68 51.95 51.87 52.43 53.17 53.79 54.52 55.16 56.98 61.10 61.13 62.71 65.63 67.03 65.67 65.72 67.75 69.00 70.97 70.91 76.39 76.96 76.48 75.61 75.84 74.95 73.48 74.04 73.42 72.63 72.56 71.72 70.83 71.24 69.65 68.72 69.78 68.90 68.69 67.78 68.35
46.76 45.85 44.92 47.75 49.53 48.28 47.37 47.84 49.16 51.37 51.73 51.89 52.63 54.31 55.25 55.93 57.81 59.66 62.00 65.29 65.22 66.33 67.50 68.76 69.78 71.54 70.30 69.45 71.76 74.18 73.74 75.00 75.12 75.26 75.01 75.20 73.84 73.49 72.18 71.28 70.46 71.28 68.98 68.68 68.70 68.70 67.61 67.58 68.40
46.66 44.73 44.61 47.38 49.38 48.39 47.63 47.08 49.71 51.20 51.74 52.73 52.85 54.18 55.37 56.77 57.93 59.56 62.56 63.21 64.24 65.15 67.27 67.47 68.83 69.48 71.05 69.69 69.10 72.26 73.47 74.00 74.78 75.53 75.64 75.08 74.62 73.89 73.39 71.30 71.25 69.95 69.51 68.91 68.37 67.78 66.33 67.42 67.80
46.26 45.14 45.25 44.89 47.68 49.18 47.81 45.81 47.95 50.83 52.45 53.41 54.21 55.36 55.82 56.21 56.94 59.41 59.94 61.94 63.13 64.72 66.04 65.25 68.19 68.34 70.92 71.06 69.74 68.43 69.00 72.39 73.21 73.41 73.83 74.61 74.85 74.84 74.02 73.60 71.63 71.46 70.91 69.44 69.59 69.44 67.98 65.93 68.03
43.68 48.12 47.08 45.92 44.50 40.37 47.66 39.41 47.33 49.73 50.92 52.83 53.98 54.31 54.65 56.04 57.61 57.88 58.22 60.57 62.94 62.96 64.29 65.67 68.44 69.64 67.83 69.53 67.42 67.23 65.12 64.51 69.36 72.36 73.76 74.24 75.23 74.63 74.23 74.19 73.74 71.34 72.18 70.90 71.03 71.13 70.60 69.64 66.77
44.96 48.20 47.05 46.61 44.68 44.12 44.17 41.50 45.07 49.93 48.77 51.21 54.12 55.09 56.14 57.08 57.07 56.21 56.48 59.51 60.02 61.68 61.90 65.52 68.37 68.69 67.81 68.84 68.29 65.83 63.66 63.47 65.80 66.47 68.58 72.88 74.89 74.39 74.12 74.30 74.03 72.76 72.13 72.37 71.34 71.60 71.36 70.78 67.74
49.13 46.65 46.83 46.38 44.44 38.59 43.00 42.68 43.09 46.80 49.89 52.14 53.92 54.81 55.41 55.08 54.97 55.36 57.20 59.29 59.67 59.68 60.81 63.57 65.18 66.68 68.96 66.99 66.59 67.04 66.37 66.15 65.52 65.09 66.70 67.53 72.81 73.38 73.49 74.04 74.05 73.73 72.75 71.51 70.65 70.87 71.92 70.76 69.32
47.68 44.76 37.87 36.84 37.46 37.01 45.19 43.14 46.21 52.03 53.01 52.82 52.98 54.20 54.64 54.46 54.14 54.93 55.31 55.68 58.54 58.15 59.85 61.78 61.83 62.01 66.43 65.33 65.85 65.64 65.00 66.07 65.73 66.73 66.90 66.88 69.53 71.50 72.09 73.47 73.02 73.37 73.16 73.01 70.40 70.73 71.43 71.30 70.08
45.55 44.77 39.13 32.55 34.86 38.53 45.86 40.73 45.44 52.99 54.13 54.42 53.95 54.39 54.34 53.17 54.06 54.77 55.02 56.51 55.84 57.20 59.77 60.13 60.63 61.49 63.70 64.13 63.98 66.05 65.34 64.50 64.79 65.82 66.70 68.34 68.54 69.19 72.78 73.00 72.85 73.36 73.30 73.32 70.40 70.77 70.83 71.73 70.71
44.75 41.26 46.38 40.88 42.02 38.13 41.58 45.05 50.16 52.44 52.45 53.28 53.14 52.94 52.06 53.11 54.97 54.36 54.37 56.14 57.05 57.70 59.88 60.75 59.80 60.34 62.71 63.39 64.23 65.30 65.49 65.26 64.71 65.57 66.76 67.53 70.10 70.21 69.83 69.85 71.36 71.71 71.88 72.42 71.97 68.72 60.06 59.99 68.96
46.94 48.31 39.77 41.06 33.06 32.38 38.79 41.18 42.53 47.22 49.27 50.74 51.19 51.05 51.88 53.79 52.95 53.45 54.44 55.76 57.78 58.68 60.98 60.31 61.75 59.98 61.29 63.28 62.30 61.95 62.53 64.35 64.83 65.21 65.58 67.22 68.04 70.11 70.52 69.47 64.38 62.26 60.61 63.04 61.78 61.00 59.19 60.32 59.30
45.25 42.93 43.60 43.36 41.43 34.67 33.25 38.53 49.52 48.58 49.72 50.19 51.54 52.13 51.90 52.13 51.86 52.81 54.13 55.34 56.48 57.53 56.93 58.52 59.60 59.28 60.54 61.11 60.52 61.47 62.31 62.15 63.39 64.09 66.03 66.75 67.91 69.13 69.32 67.47 65.20 63.80 60.72 62.21 61.66 59.35 58.56 58.23 58.10
47.72 44.79 44.06 37.77 37.05 40.78 39.37 38.64 50.78 51.61 50.77 51.63 50.44 50.90 51.84 53.18 53.03 53.45 53.78 54.65 55.48 56.46 57.03 56.92 60.07 59.05 59.14 61.00 60.43 61.63 61.82 62.59 62.30 62.05 62.60 64.38 62.98 67.32 69.39 64.03 59.76 60.14 60.45 59.94 60.72 57.98 59.30 58.97 57.96
MSLP
1007.80 1006.26 1004.93 1004.30 1003.97 1002.04 999.84 997.55 995.95 996.11 995.56 995.72 996.12 996.48 996.96 997.10 997.87 999.74 1000.94 1001.04 1002.67 1004.36 1005.39 1006.10 1006.48 1006.89 1007.50 1008.16 1008.65 1009.05 1009.54 1009.97 1010.35 1010.77 1011.12 1011.40 1011.70 1012.07 1012.32 1012.60 1012.89 1013.13 1013.39 1013.52 1013.72 1013.88 1014.00 1014.07 1014.18
1007.58 1006.73 1005.13 1003.86 1002.81 1000.54 998.61 996.89 995.49 995.99 996.15 996.68 996.91 997.23 997.44 998.18 998.82 999.92 1001.02 1001.51 1003.03 1004.64 1005.53 1006.13 1006.75 1006.97 1007.54 1008.28 1008.80 1009.18 1009.63 1010.06 1010.44 1010.87 1011.28 1011.71 1012.04 1012.32 1012.54 1012.77 1013.00 1013.18 1013.45 1013.65 1013.81 1013.99 1014.14 1014.24 1014.33
1007.52 1006.46 1005.11 1003.04 1001.76 999.92 997.51 997.24 996.57 996.45 996.88 996.90 996.80 997.49 998.58 999.52 999.64 1000.61 1001.50 1001.97 1003.37 1004.54 1005.35 1006.21 1006.89 1007.30 1007.67 1008.21 1008.87 1009.36 1009.78 1010.21 1010.58 1011.01 1011.43 1011.83 1012.24 1012.51 1012.73 1012.93 1013.17 1013.31 1013.51 1013.71 1013.87 1014.07 1014.23 1014.36 1014.51
1006.55 1005.09 1004.55 1002.67 1000.65 999.19 997.97 997.06 996.70 997.02 997.18 997.43 997.17 998.27 999.90 1000.36 1000.41 1001.09 1001.65 1002.08 1003.41 1004.38 1005.13 1006.53 1007.08 1007.55 1007.91 1008.34 1008.85 1009.36 1009.95 1010.37 1010.74 1011.09 1011.44 1011.84 1012.24 1012.63 1012.94 1013.23 1013.42 1013.55 1013.69 1013.84 1014.03 1014.24 1014.38 1014.51 1014.65
1006.04 1005.08 1003.47 1001.95 1000.38 998.79 997.53 997.25 997.34 997.44 997.25 997.44 997.71 998.88 1000.00 1000.69 1000.98 1001.50 1001.80 1002.14 1002.76 1003.93 1005.11 1006.52 1007.15 1007.59 1008.07 1008.43 1008.78 1009.30 1009.74 1010.38 1010.79 1011.22 1011.55 1011.87 1012.26 1012.60 1012.85 1013.16 1013.48 1013.80 1013.94 1014.08 1014.23 1014.43 1014.57 1014.68 1014.78
1005.84 1004.66 1003.44 1001.53 1000.09 998.69 997.57 997.39 998.10 998.18 997.81 998.14 998.39 999.02 1000.29 1000.75 1001.07 1001.44 1001.80 1002.13 1002.52 1003.53 1005.23 1006.42 1007.36 1007.87 1008.20 1008.58 1008.96 1009.26 1009.80 1010.30 1010.80 1011.22 1011.62 1012.00 1012.33 1012.69 1013.00 1013.26 1013.44 1013.63 1013.89 1014.14 1014.39 1014.53 1014.67 1014.80 1014.88
1005.66 1004.53 1003.10 1001.77 1000.09 998.61 997.81 998.07 998.26 998.57 998.52 998.59 998.90 999.20 1000.50 1001.02 1001.41 1001.44 1001.66 1002.11 1002.45 1003.51 1004.94 1006.38 1007.19 1007.91 1008.50 1008.85 1009.14 1009.45 1009.75 1010.07 1010.57 1011.17 1011.63 1012.05 1012.40 1012.68 1012.97 1013.30 1013.54 1013.72 1013.92 1014.17 1014.30 1014.47 1014.68 1014.80 1014.87
1005.35 1005.07 1003.47 1001.92 1000.46 999.39 998.60 998.71 998.89 999.00 998.86 999.43 999.85 1000.02 1000.85 1001.56 1001.55 1001.55 1001.47 1001.91 1002.21 1003.27 1004.52 1006.01 1006.95 1007.66 1008.16 1008.82 1009.31 1009.66 1009.88 1010.21 1010.52 1010.87 1011.41 1011.92 1012.41 1012.72 1013.02 1013.28 1013.44 1013.71 1014.00 1014.12 1014.31 1014.54 1014.79 1014.81 1014.77
1004.94 1004.38 1002.91 1002.02 1001.13 999.96 999.33 999.67 999.37 999.59 999.50 999.90 1000.38 1000.42 1000.75 1001.51 1001.82 1001.28 1001.10 1001.42 1001.86 1002.63 1003.77 1005.06 1006.49 1007.30 1007.73 1008.18 1009.01 1009.64 1010.10 1010.35 1010.63 1010.97 1011.37 1011.75 1012.08 1012.57 1012.89 1013.05 1013.22 1013.58 1013.80 1014.03 1014.32 1014.44 1014.56 1014.71 1014.66
1004.33 1003.77 1002.67 1001.96 1001.32 1000.90 1000.35 999.83 999.61 999.99 999.91 1000.29 1000.67 1000.83 1000.95 1001.43 1001.80 1001.60 1001.29 1001.37 1001.51 1002.11 1002.97 1004.10 1005.31 1006.40 1007.24 1007.31 1008.27 1009.09 1009.54 1010.09 1010.46 1010.62 1011.10 1011.30 1011.39 1011.56 1011.90 1012.38 1012.84 1013.38 1013.71 1013.90 1014.07 1014.26 1014.43 1014.47 1014.41
1003.89 1003.23 1002.57 1001.87 1001.49 1001.15 1000.53 1000.43 1000.36 999.97 999.87 1000.12 1000.60 1000.82 1000.75 1000.94 1001.52 1001.88 1001.67 1001.65 1001.59 1001.56 1002.10 1002.97 1004.37 1005.43 1006.31 1006.84 1007.47 1008.19 1008.59 1009.22 1009.63 1010.02 1010.44 1010.89 1010.81 1010.93 1011.22 1011.69 1012.45 1012.89 1013.25 1013.43 1013.64 1013.93 1014.08 1013.95 1013.74
1002.76 1002.74 1002.64 1002.07 1001.13 1000.98 1000.96 1001.32 1001.07 1000.72 1000.59 1000.70 1000.90 1000.99 1001.30 1001.43 1001.69 1001.88 1001.90 1001.87 1001.76 1001.55 1001.73 1002.03 1003.41 1004.65 1005.52 1006.10 1006.82 1007.40 1007.94 1008.25 1008.75 1009.11 1009.60 1010.16 1010.58 1010.58 1010.68 1011.03 1011.57 1011.91 1012.17 1012.69 1012.61 1012.87 1013.05 1013.19 1013.03
1001.74 1001.76 1001.58 1001.30 1001.27 1001.23 1001.72 1001.74 1001.50 1001.04 1000.90 1001.00 1001.19 1001.32 1001.58 1001.73 1001.97 1002.04 1001.92 1001.74 1001.58 1001.64 1001.81 1001.90 1002.86 1004.02 1004.97 1005.50 1005.86 1006.37 1007.01 1007.45 1007.66 1008.13 1008.65 1009.25 1009.89 1010.06 1010.12 1010.42 1010.50 1010.89 1011.32 1011.92 1012.20 1012.02 1012.15 1012.27 1012.26
1001.06 1001.17 1001.12 1001.07 1001.08 1001.22 1001.56 1001.87 1001.94 1001.59 1001.30 1001.10 1001.25 1001.56 1001.71 1001.84 1001.77 1001.73 1001.75 1001.77 1001.90 1002.03 1002.23 1002.55 1002.67 1003.53 1004.54 1005.34 1005.72 1006.09 1006.26 1006.53 1006.96 1007.25 1007.63 1008.19 1008.68 1009.37 1009.58 1009.56 1009.69 1009.94 1010.15 1010.52 1011.23 1011.26 1011.33 1011.64 1011.64
1000.79 1000.80 1001.05 1001.05 1000.82 1001.12 1001.37 1001.08 1000.95 1001.15 1001.19 1000.84 1001.34 1001.48 1001.65 1001.73 1001.72 1001.64 1001.70 1001.88 1002.28 1002.59 1002.86 1002.97 1003.47 1003.63 1004.26 1005.08 1005.68 1005.98 1006.30 1006.23 1006.39 1006.70 1006.94 1007.51 1007.96 1008.31 1008.72 1008.87 1009.49 1009.08 1009.60 1009.34 1009.66 1010.03 1010.60 1011.04 1011.62
1001.06 1001.06 1000.48 1000.05 1000.24 1000.56 1000.97 1000.49 1000.38 999.97 1000.12 1000.70 1001.10 1001.47 1001.47 1001.60 1001.79 1001.77 1001.89 1001.99 1002.51 1003.07 1003.47 1003.69 1003.54 1003.84 1003.95 1004.52 1005.26 1005.83 1006.30 1006.40 1006.42 1006.42 1006.44 1006.85 1007.47 1007.94 1008.56 1008.72 1008.85 1008.88 1009.10 1009.44 1009.68 1009.71 1009.94 1010.45 1010.78
1001.19 1000.61 1000.06 999.61 998.94 999.30 999.97 1000.02 1000.30 1000.06 1000.33 1000.75 1001.21 1001.39 1001.42 1001.71 1001.84 1001.95 1001.96 1002.17 1002.64 1003.15 1003.60 1004.09 1004.29 1004.41 1004.67 1004.50 1004.76 1005.48 1005.86 1006.25 1006.21 1006.07 1006.26 1006.48 1006.94 1007.35 1007.96 1008.62 1008.49 1008.51 1008.50 1009.02 1008.98 1009.46 1009.74 1010.22 1009.83
1000.21 999.83 999.26 998.58 997.99 998.69 999.51 999.79 1000.06 999.77 1000.08 1000.42 1000.76 1001.04 1001.25 1001.25 1001.24 1001.53 1001.84 1002.29 1002.69 1003.19 1003.69 1004.20 1004.67 1004.85 1004.69 1004.79 1004.85 1005.13 1005.50 1005.60 1005.73 1005.67 1005.84 1005.84 1006.30 1006.89 1007.46 1007.76 1008.05 1008.47 1008.52 1008.64 1008.75 1008.96 1009.69 1009.46 1009.27
999.81 999.04 998.57 998.11 997.98 998.32 998.87 999.43 999.52 999.27 999.21 999.35 999.66 1000.04 1000.34 1000.55 1000.79 1001.18 1001.64 1002.00 1002.78 1003.49 1004.01 1004.40 1004.70 1004.90 1005.18 1004.96 1004.67 1004.77 1004.71 1004.84 1004.95 1005.05 1005.14 1005.24 1005.53 1006.18 1007.01 1007.42 1007.94 1008.19 1008.16 1007.77 1007.73 1007.52 1007.58 1008.13 1008.39
999.92 999.62 999.36 999.14 998.69 998.82 998.98 999.14 999.38 999.27 998.92 998.88 998.95 999.21 999.51 999.82 1000.09 1000.62 1001.36 1002.41 1003.20 1003.70 1004.07 1004.42 1004.77 1004.86 1004.81 1004.82 1004.77 1004.36 1003.88 1003.90 1003.90 1004.06 1004.29 1004.49 1004.74 1005.16 1005.73 1006.31 1006.68 1007.24 1007.50 1007.66 1007.56 1007.58 1007.10 1007.06 1007.47
1000.04 1000.13 1000.07 999.93 999.59 999.29 999.32 999.15 999.18 998.74 998.30 998.33 998.39 998.52 999.02 999.53 999.97 1000.68 1001.73 1002.54 1003.24 1003.78 1004.22 1004.44 1004.56 1004.81 1004.75 1004.58 1004.31 1004.28 1004.00 1003.28 1003.17 1003.52 1003.55 1003.69 1004.00 1004.21 1004.45 1004.87 1005.46 1005.99 1006.39 1006.38 1006.38 1006.41 1006.68 1006.38 1006.81
1000.00 1000.28 1000.34 1000.31 1000.30 999.80 999.66 998.51 998.11 997.45 996.96 997.03 997.34 997.92 998.69 999.40 999.95 1000.82 1001.78 1002.64 1003.31 1003.60 1004.08 1004.36 1004.44 1004.58 1004.43 1004.26 1004.29 1004.16 1004.11 1003.66 1003.13 1002.59 1002.23 1002.30 1002.58 1002.95 1003.51 1004.32 1004.74 1004.49 1004.42 1004.82 1005.20 1005.64 1005.82 1006.03 1006.53
1000.03 1000.21 1000.16 1000.20 1000.17 1000.11 999.87 999.09 998.05 997.28 996.50 996.12 996.18 996.90 997.98 998.77 999.70 1000.67 1001.59 1002.41 1003.05 1003.55 1003.86 1003.91 1003.97 1004.08 1004.25 1004.22 1004.26 1004.02 1003.72 1003.61 1003.18 1002.45 1002.05 1001.39 1001.26 1001.92 1002.07 1002.39 1002.73 1003.36 1003.57 1003.65 1004.21 1004.48 1004.81 1004.81 1005.32
1000.11 1000.35 1000.45 1000.71 1000.79 1000.04 999.88 998.97 997.50 996.47 995.58 995.25 995.41 996.35 997.51 998.89 999.86 1000.69 1001.53 1002.35 1003.01 1003.28 1003.43 1003.69 1003.85 1003.80 1003.71 1003.74 1003.75 1003.69 1003.47 1003.30 1003.09 1002.64 1001.91 1001.15 1000.22 1000.40 1000.48 1001.25 1001.57 1001.97 1002.49 1002.67 1003.14 1003.62 1003.91 1003.79 1004.04
1000.28 1000.95 1001.00 1000.95 1000.43 999.31 998.87 997.76 996.46 995.91 995.82 996.11 996.49 997.10 998.19 999.29 1000.17 1000.92 1001.60 1002.26 1002.77 1003.11 1003.24 1003.38 1003.54 1003.62 1003.35 1003.28 1003.22 1003.07 1002.99 1002.78 1002.34 1002.12 1001.66 1001.11 999.61 998.93 999.25 999.90 1000.33 1000.86 1001.12 1001.43 1001.97 1002.22 1002.62 1003.21 1003.40
1000.52 1000.87 1001.14 1000.97 1000.83 999.84 998.98 997.75 996.85 996.33 996.30 996.54 997.20 997.69 998.48 999.67 1000.49 1001.07 1001.52 1002.03 1002.53 1002.66 1002.85 1002.94 1003.00 1002.98 1002.86 1002.91 1002.81 1002.58 1002.40 1001.93 1001.37 1000.84 1000.63 1000.16 998.91 998.41 997.99 998.41 998.65 999.16 999.68 1000.53 1001.01 1001.19 1001.51 1002.19 1002.18
1001.13 1001.22 1001.96 1002.37 1002.66 1001.85 1000.66 998.79 997.59 996.70 996.43 996.20 997.19 998.12 999.06 999.79 1000.42 1000.82 1001.17 1001.66 1001.83 1002.15 1002.38 1002.56 1002.58 1002.40 1002.20 1002.22 1002.09 1001.93 1001.74 1001.28 1000.51 999.96 999.55 998.80 998.18 997.86 997.61 997.77 997.09 996.40 998.57 999.53 999.84 1001.07 1002.07 1003.08 1001.96
1001.63 1002.17 1003.01 1003.85 1003.85 1002.29 1000.70 999.47 998.27 998.52 998.13 998.08 998.41 998.80 999.40 999.73 1000.01 1000.36 1000.69 1000.94 1001.16 1001.38 1001.69 1001.91 1001.80 1001.74 1001.71 1001.63 1001.60 1001.59 1001.44 1001.04 1000.46 999.13 998.37 997.96 997.83 997.47 997.13 996.91 997.48 998.36 997.26 999.81 1001.38 1001.10 1000.63 1001.32 1000.62
1002.52 1002.64 1003.20 1003.91 1004.16 1003.43 1002.13 1000.31 999.17 999.11 999.06 999.09 999.15 999.34 999.51 999.70 999.88 1000.02 1000.02 1000.05 1000.33 1000.70 1000.88 1001.27 1001.32 1001.35 1001.33 1001.50 1001.10 1001.20 1000.95 1000.73 1000.08 999.34 998.20 997.18 996.92 996.92 996.60 996.69 997.16 998.09 998.87 1000.76 1002.65 1003.73 998.91 1000.86 1001.71
1003.41 1003.57 1004.12 1004.97 1004.60 1003.78 1002.99 1001.06 1001.03 1000.15 999.97 999.64 999.59 999.66 999.67 999.54 999.53 999.47 999.47 999.42 999.77 1000.24 1000.39 1000.77 1000.82 1001.06 1001.03 1000.97 1001.16 1001.05 1000.81 1000.52 999.93 998.82 998.48 998.10 998.04 997.02 995.77 996.49 997.04 997.86 998.92 1000.24 1002.16 1001.90 1000.97 1000.55 1000.41
Wind_Speed
16 18 12 10 8 8 17 21 18 7 1 7 8 6 15 20 14 7 9 12 23 19 16 16 18 19 18 16 15 15 14 14 13 13 12 12 12 11 11 11 10 10 10 9 8 8 8 8 8
11 17 12 10 11 13 14 21 22 4 13 6 2 5 9 16 17 14 10 18 22 18 14 15 15 19 19 16 14 14 14 13 13 13 12 11 11 11 11 10 10 10 9 9 8 8 7 7 7
16 17 11 9 13 16 16 17 10 12 6 3 2 4 11 11 16 10 11 19 19 16 14 14 14 16 18 18 15 14 14 13 13 13 12 11 10 10 10 9 9 9 9 8 8 8 7 7 6
9 10 9 13 18 21 21 7 7 6 2 1 6 15 9 11 7 12 11 16 17 16 15 17 14 14 15 17 16 15 13 13 13 13 13 12 11 10 9 8 7 7 8 7 7 6 5 5 5
10 8 12 16 19 21 15 4 8 6 2 5 3 18 16 12 13 11 9 12 13 17 17 16 15 14 14 15 16 15 16 14 14 13 12 12 11 10 10 9 8 6 6 6 6 5 4 4 3
8 10 14 14 19 20 16 6 6 9 3 6 7 18 14 8 10 10 9 9 10 16 16 14 15 12 13 13 14 15 15 15 14 14 12 11 10 10 9 8 8 8 7 7 5 4 4 3 3
13 11 17 20 19 17 4 5 7 8 11 6 6 6 12 10 7 5 5 5 10 17 16 12 13 12 11 10 11 12 13 16 16 14 13 12 11 10 9 8 8 7 7 6 6 5 4 4 4
11 10 21 20 17 18 11 4 8 10 9 10 5 4 11 8 2 9 8 11 10 13 18 14 11 12 11 10 10 10 12 13 14 16 15 14 12 10 9 8 8 7 6 6 6 5 4 4 5
17 13 16 22 21 18 15 10 9 7 11 5 3 7 6 6 6 6 6 11 10 12 13 15 15 12 11 11 11 11 12 12 13 12 14 12 8 9 11 11 12 11 9 7 6 6 6 7 8
16 12 22 18 13 13 21 15 11 8 15 10 12 11 9 7 7 7 6 7 11 13 14 15 15 15 12 11 13 11 11 9 9 10 11 8 9 9 12 12 14 13 10 8 8 7 7 7 6
18 17 17 17 17 16 16 10 12 13 16 9 9 12 12 8 2 6 9 9 9 8 12 16 14 14 14 11 10 7 7 7 8 12 10 10 8 6 8 5 7 7 10 6 8 7 5 7 7
20 21 19 19 19 7 8 9 15 17 14 12 13 13 9 9 8 9 11 11 11 10 6 13 16 13 12 9 10 10 9 9 8 11 11 8 6 7 6 6 9 8 7 8 6 6 8 9 9
22 18 19 17 18 11 10 13 15 17 14 13 13 10 11 10 10 10 12 12 10 8 6 10 17 13 10 7 5 8 10 9 11 10 12 10 9 7 7 8 8 9 7 8 6 7 8 8 9
15 19 16 17 12 14 14 16 16 16 16 16 13 12 14 13 14 11 9 6 5 7 8 6 8 13 10 8 6 2 7 9 9 10 12 14 8 9 8 6 9 8 9 9 8 6 6 5 3
13 14 12 16 17 14 15 18 19 16 17 13 14 13 12 12 11 9 6 3 5 6 8 7 3 9 12 9 7 5 4 4 5 7 11 14 13 10 9 8 5 7 8 10 12 10 6 4 3
14 15 16 17 18 19 15 16 16 15 21 16 5 10 12 9 11 7 6 1 4 4 6 8 10 5 12 12 9 7 7 5 6 5 6 13 14 11 6 5 7 5 4 3 0 2 4 4 5
13 13 20 20 20 18 19 18 16 12 4 7 12 13 10 11 9 9 4 3 3 3 4 2 8 9 8 8 8 8 9 8 8 8 9 12 15 14 7 8 7 7 5 4 5 4 5 5 5
16 20 17 17 13 13 13 15 17 11 15 14 14 13 13 13 9 8 9 8 6 3 6 5 0 6 8 6 6 5 7 9 9 8 11 9 11 15 12 9 8 7 5 6 7 7 6 6 5
21 20 15 10 13 16 16 15 16 15 14 15 13 13 12 12 12 10 6 4 7 7 5 4 4 1 4 4 5 8 10 9 9 10 12 9 13 16 14 11 11 8 11 13 14 14 13 9 7
18 18 14 17 16 13 12 15 15 17 18 16 14 13 12 10 10 8 4 8 7 7 6 6 5 5 5 3 4 5 5 11 11 11 13 15 13 16 16 17 13 15 11 12 12 13 11 10 10
14 14 15 17 16 16 14 16 17 20 20 19 18 13 10 9 6 5 7 6 5 3 4 6 5 5 6 5 4 5 6 8 8 10 11 13 16 16 19 19 17 14 14 14 15 14 15 11 8
17 16 17 17 15 14 15 15 19 14 17 20 16 12 10 11 7 4 3 2 4 4 5 6 4 6 6 7 7 8 9 10 8 11 11 13 19 19 19 18 18 19 14 17 15 13 13 8 10
13 14 15 14 14 15 17 14 14 18 20 18 15 18 13 11 5 3 2 4 6 6 7 5 2 3 6 6 6 8 9 10 10 10 13 14 15 20 19 21 20 19 15 17 17 15 16 12 11
15 16 13 14 13 15 18 19 16 17 18 11 8 16 8 6 4 2 2 3 5 8 7 6 7 5 3 6 8 9 10 11 11 13 12 12 11 15 21 21 20 19 18 18 15 16 18 17 15
7 8 10 13 14 15 21 19 12 11 12 7 5 7 8 6 2 3 5 6 6 9 8 5 7 9 5 7 8 9 12 12 14 14 13 16 13 13 18 22 21 17 20 19 20 18 17 18 14
16 14 11 18 15 16 21 15 14 14 11 5 3 6 3 1 1 6 7 6 10 10 8 8 8 9 7 7 10 7 11 11 12 13 13 14 15 16 14 21 22 23 21 19 18 14 15 15 15
13 14 12 10 12 14 14 21 20 17 11 2 0 2 3 4 6 8 9 9 8 9 7 7 10 12 8 7 9 8 10 13 14 16 14 13 17 15 21 12 25 26 22 17 21 11 7 10 18
14 10 7 7 6 12 12 14 10 10 14 6 4 2 6 9 9 9 9 11 7 7 5 9 8 7 9 7 6 10 14 13 17 15 17 17 18 17 17 16 6 6 6 11 12 4 7 3 16
13 12 11 10 13 9 12 10 12 12 6 8 11 12 12 11 11 12 13 9 8 8 8 8 9 9 8 7 9 9 10 13 13 13 15 17 17 18 17 11 9 6 10 8 11 15 13 12 17
17 17 10 5 7 10 11 15 16 12 13 14 9 12 13 14 14 13 12 11 7 8 7 8 5 7 9 6 8 8 9 11 13 12 11 11 22 23 18 9 10 11 16 15 16 14 12 17 20
Wind_Direction
294 295 296 263 249 228 256 248 253 229 10 44 37 332 336 46 36 67 123 111 114 132 137 145 141 139 143 146 148 145 144 145 139 135 132 131 130 130 123 121 120 121 124 122 122 122 116 112 105
293 298 281 264 247 243 236 244 250 43 71 75 60 239 258 63 85 109 114 114 120 135 144 143 146 143 144 147 148 146 147 147 142 141 139 138 136 137 132 131 135 135 135 130 130 128 126 121 113
276 269 276 244 239 245 253 345 8 75 61 274 154 336 23 6 45 90 116 116 121 140 154 135 144 146 145 147 147 147 148 148 146 145 145 145 144 143 142 143 145 144 140 138 140 141 140 135 134
276 268 237 262 251 242 260 256 53 89 134 287 288 90 81 36 55 88 127 129 136 141 152 139 138 141 147 147 150 149 151 153 151 152 152 151 150 145 144 148 147 148 146 147 148 146 149 155 153
257 268 255 248 244 262 251 322 101 268 116 147 196 110 104 96 91 105 128 134 150 143 131 143 139 143 147 150 153 158 156 159 156 157 153 154 154 154 153 153 148 153 151 150 151 151 153 164 164
257 237 255 250 247 248 265 161 141 266 313 76 295 104 95 104 116 138 138 150 155 129 133 142 138 142 146 151 156 159 162 159 158 156 154 155 156 157 156 156 157 160 161 161 165 163 169 181 187
244 250 248 250 265 271 268 286 288 236 269 257 95 113 121 89 108 80 142 152 141 133 134 143 156 147 139 147 155 162 165 161 156 154 154 156 159 160 160 160 162 165 162 167 168 174 191 201 219
222 245 260 262 259 261 257 295 264 273 270 86 67 271 97 103 83 149 201 155 158 144 136 142 161 168 164 164 158 163 164 164 160 158 159 159 159 161 165 160 169 173 178 175 176 186 212 228 233
242 242 239 241 261 281 290 222 222 268 269 355 315 274 55 64 342 271 203 165 171 152 146 146 166 172 183 171 169 163 171 169 160 160 162 156 177 176 177 193 175 178 183 186 190 199 207 231 243
228 229 243 252 261 258 275 286 284 215 253 241 252 266 267 252 237 267 249 228 178 165 168 152 161 165 183 194 158 178 182 189 190 183 177 192 204 179 193 188 168 175 185 194 198 206 219 230 253
215 238 254 243 267 257 277 305 273 282 257 248 274 274 258 257 257 283 272 275 299 205 172 158 156 160 178 208 156 175 182 189 191 199 189 197 202 211 190 160 168 175 189 194 195 199 220 225 231
217 225 236 261 267 286 276 281 278 281 271 270 276 286 312 304 277 263 258 247 235 254 221 156 153 160 176 187 163 175 187 187 190 196 194 188 213 200 182 174 182 186 181 204 192 197 199 215 234
231 238 242 229 251 262 276 277 262 259 260 260 257 281 272 260 273 275 276 270 287 305 327 173 158 160 169 198 196 174 184 192 192 186 194 194 191 214 199 192 186 177 183 187 214 203 198 209 219
233 235 241 263 240 257 233 245 261 261 270 255 249 254 259 249 247 246 241 256 330 325 349 22 156 158 162 183 214 224 179 192 189 195 191 187 193 205 203 196 201 175 187 177 198 213 198 199 217
254 239 239 240 250 237 252 251 239 243 244 229 229 234 246 263 275 281 301 281 28 11 2 337 288 157 166 180 211 223 262 210 189 193 182 188 201 198 207 193 217 202 199 198 183 194 177 159 227
246 245 255 249 225 236 232 251 257 268 212 228 252 266 255 259 259 268 245 137 65 23 350 351 342 343 176 181 190 213 231 233 231 203 184 186 197 204 199 192 199 201 209 195 344 160 152 181 198
231 241 237 248 243 204 212 248 253 235 155 223 212 233 238 238 234 252 286 305 164 207 146 0 351 341 356 212 196 192 210 239 231 231 206 197 196 198 193 213 205 206 173 185 173 192 190 198 185
231 219 235 256 228 188 230 225 249 231 198 220 225 235 242 250 243 219 190 209 221 151 100 96 89 304 318 319 212 217 209 220 234 229 235 200 190 199 199 202 206 200 199 202 188 178 226 206 194
266 283 298 283 229 195 207 224 243 249 248 246 219 222 225 226 224 214 225 216 44 47 44 33 359 335 311 309 280 211 223 218 220 228 234 214 189 192 200 209 212 209 212 206 203 200 194 205 198
244 267 278 286 294 294 273 263 265 262 262 260 260 252 246 246 230 204 122 63 45 21 10 358 329 282 241 242 262 287 242 222 221 221 223 222 209 196 197 204 206 212 212 218 212 215 207 204 191
255 269 269 265 276 270 254 258 257 253 251 250 254 250 250 260 264 95 56 38 7 338 343 320 309 301 298 286 268 287 277 261 240 234 224 224 222 206 202 199 204 206 210 214 217 213 216 203 198
263 241 250 259 266 266 264 269 258 265 245 225 224 220 234 236 211 118 56 339 327 341 330 293 294 317 296 272 266 243 264 279 278 232 240 212 212 219 204 206 207 213 206 217 213 215 213 197 198
263 271 274 269 267 271 263 264 265 259 251 248 228 194 197 215 174 133 213 359 320 334 281 282 259 321 308 284 291 273 263 275 282 267 274 231 210 212 215 208 209 211 215 217 224 215 207 197 194
253 270 266 262 266 255 254 254 258 260 260 266 342 169 145 100 49 359 4 318 305 293 327 320 316 261 286 287 300 288 269 261 263 274 282 260 243 208 212 215 213 211 217 216 218 217 207 209 207
226 256 258 250 241 248 243 244 254 328 332 351 227 142 108 88 352 324 268 292 314 303 289 303 302 302 293 290 269 284 287 272 253 253 263 266 258 235 210 213 216 215 220 217 216 213 208 210 197
260 247 248 276 283 292 310 288 283 310 322 204 205 286 65 75 262 288 291 321 291 286 305 308 303 285 293 308 284 271 281 278 272 251 243 254 253 260 235 208 215 217 217 220 218 217 211 207 207
265 263 298 329 306 278 266 283 285 284 342 343 189 246 288 241 254 264 293 277 291 307 298 312 299 279 260 268 288 287 292 277 266 268 259 257 247 253 257 245 219 209 218 230 221 214 89 45 261
273 278 270 260 283 273 266 279 277 360 316 18 303 239 256 254 264 271 265 267 279 283 278 269 279 321 310 312 319 324 307 304 306 264 254 255 261 261 256 253 200 276 65 338 325 212 128 59 59
261 242 251 255 248 257 279 270 305 0 300 312 294 301 306 307 293 274 263 269 273 279 287 299 308 309 319 327 330 300 302 308 298 306 292 262 263 261 252 241 240 180 171 137 335 295 125 124 124
241 271 257 251 255 266 269 269 282 302 336 344 306 298 284 268 272 284 289 285 275 273 275 283 273 287 295 310 306 308 324 313 320 314 321 336 311 273 253 171 140 133 147 165 178 194 247 170 157